C/2006 S3 ( LONEOS )

Japanese version
Home page
Updated on March 3, 2018

---------------------------------------------------------------------

* Profile

Discovery Date September 19, 2006
Magnitude 19.0 mag
Discoverer Lowell Observatory Near-Earth Object Search

* Pictures

* Orbital Elements

Epoch 2012 Apr. 23.0 TT = JDT 2456040.5
T 2012 Apr. 16.31789 TT                                 MPCW
q   5.1311374            (2000.0)            P               Q
z  -0.0006881      Peri.  140.12833     -0.21553971     -0.96493230
                   Node    38.37058     -0.94614685     +0.24432296
e   1.0035307      Incl.  166.03275     -0.24155490     -0.09597890
From 6462 observations 2006 Aug. 29-2017 May 19, mean residual 0".9.
     Nongravitational parameters Y1 = +5.60, Y2 = +10.0909, Y3 = -0.4713.

* Finding Charts

* Magnitudes Graph

        m1 = 4.0 + 5 log d +  7.5 log r(t -  300)  [   ,300]  (             - 2013 Feb. 10)
        m1 = 0.8 + 5 log d + 12.0 log r(t -  300)  [300,   ]  (2013年 2月10日〜              )

---------------------------------------------------------------------

The orbital elements are published on M.P.E.C. 2017-L52.
The charts are made with StellaNavigator Ver.2.0 for Windows (AstroArts / ASCII).
The magnitudes graphs are made with Comet for Windows.

---------------------------------------------------------------------

Copyright(C) Seiichi Yoshida (comet@aerith.net). All rights reserved.